Weather Forecast


The "Get Forecast" button currently gets the weather forecast for Drexel University in Philadelphia.

To get forecasted irradiance and power of the solar panels:

  • Enter password and click "Get Forecast" and wait for "Ready" to show up at the bottom of the page.
  • Run the MATLAB forecasting tool (only work on Drexel network). Click "Download" tab to download the tool.
  • Click "Refresh" view results.
Password:
Time Summary Icon Precipitation Intensity Precipitation Probability Temperature Apparent Temp Dew Point Humidity Wind Speed Wind Bearing Visibility Cloud Cover Pressure Ozone Irradiance Power
5/22/17 11:00:00 Light Rain rain 0.0269 0.56 59.87 59.87 57.41 0.92 4.76 103 6.85 0.86 1018.98 313.23 24.0296 44.8905
5/22/17 12:00:00 Light Rain rain 0.0102 0.58 62.24 62.24 58.86 0.89 5.45 108 5.17 0.98 1018.07 313.45 38.3675 72.1627
5/22/17 13:00:00 Light Rain rain 0.0186 0.6 64.73 64.73 60.8 0.87 4.75 129 5.6 0.98 1017.42 314.64 71.3307 134.186
5/22/17 14:00:00 Light Rain rain 0.0191 0.6 67.67 67.67 63.14 0.85 4.82 151 6.01 0.99 1016.78 315.47 92.3606 172.859
5/22/17 15:00:00 Light Rain rain 0.0162 0.58 70.8 70.8 65.74 0.84 5.69 158 6.09 0.99 1016.13 315.25 90.4954 169.958
5/22/17 16:00:00 Light Rain rain 0.0124 0.54 73.45 73.45 67.99 0.83 6.67 163 8.24 1 1015.5 314.66 84.8746 159.402
5/22/17 17:00:00 Drizzle rain 0.0086 0.45 74.58 74.58 68.89 0.83 7.15 165 9.1 1 1014.95 314.47 74.4561 139.835
5/22/17 18:00:00 Drizzle rain 0.0088 0.46 73.46 73.46 68.24 0.84 6.41 165 9.07 1 1014.63 314.81 69.8273 130.314
5/22/17 19:00:00 Light Rain rain 0.0094 0.5 71.59 71.59 67.21 0.86 5.08 164 9.03 1 1014.44 315.56 64.9606 118.638
5/22/17 20:00:00 Drizzle rain 0.0065 0.31 69.17 69.17 65.58 0.88 4.06 161 9.39 1 1014.33 317 52.8019 76.6822
5/22/17 21:00:00 Overcast cloudy 0.0044 0.17 67.2 67.2 64.37 0.91 3.24 155 5.74 0.98 1014.3 320.11 30.4623 0.28408
5/22/17 22:00:00 Overcast cloudy 0.0023 0.06 65.73 65.73 63.94 0.94 2.52 149 5.69 0.95 1014.34 323.92 8.266 0.077087
5/22/17 23:00:00 Mostly Cloudy partly-cloudy-night 0.0014 0.03 64.8 64.8 63.28 0.95 1.6 148 5.57 0.93 1014.29 325.89 8.3869 0.078214
5/23/17 00:00:00 Overcast cloudy 0.0013 0.02 64.32 64.32 62.65 0.94 0.15 217 4.94 0.94 1014.05 324.43 142.542 1.3293
5/23/17 01:00:00 Overcast cloudy 0.0034 0.12 64.05 64.05 62.59 0.95 1.66 312 4.06 0.97 1013.63 321.14 107.427 1.0018
5/23/17 02:00:00 Overcast cloudy 0.0016 0.03 63.69 63.69 61.82 0.94 3.15 321 3.59 0.99 1013.3 318.3 83.4231 0.77798
5/23/17 03:00:00 Overcast cloudy 0.001 0.01 62.88 62.88 60.78 0.93 4.88 330 4.04 0.99 1013.1 316.62 53.9575 0.50319
5/23/17 04:00:00 Overcast cloudy 0.0008 0.01 61.46 61.46 59.03 0.92 6.96 337 6.13 0.97 1012.96 315.39 16.2278 0.15134
5/23/17 05:00:00 Overcast cloudy 0 0 60.66 60.66 57.69 0.9 7.97 342 6.37 0.95 1012.87 314.73 8.0264 0.074852
5/23/17 06:00:00 Overcast cloudy 0 0 61.08 61.08 57.58 0.88 8.33 349 6.47 0.95 1012.88 315.05 16.118 26.5663
5/23/17 07:00:00 Overcast cloudy 0 0 61.76 61.76 57.26 0.85 8.41 0 6.4 0.95 1012.95 315.95 13.8931 25.7152
5/23/17 08:00:00 Overcast cloudy 0 0 62.28 62.28 56.54 0.81 8.61 10 9.63 0.95 1012.96 316.3 42.1816 78.9455
5/23/17 09:00:00 Overcast cloudy 0.001 0.01 63.09 63.09 55.83 0.77 8.09 15 9.62 0.96 1012.82 315.35 83.4847 155.665
5/23/17 10:00:00 Overcast cloudy 0.0018 0.04 66.76 66.76 58.02 0.74 7.11 20 9.46 0.98 1012.59 313.85 134.432 250.66
5/23/17 11:00:00 Overcast cloudy 0.0031 0.1 68.25 68.25 57.25 0.68 6.09 28 9.66 1 1012.28 312.91 203.445 382.647